Regional Weather Roundup
Issued by NWS

Home | Current Version | Previous Version | Graphics & Text | Print | Product List | Glossary On
Versions: 1 2 3 4 5 6 7 8 9 10 11 12 13 14 15 16 17 18 19 20 21 22 23 24 25 26 27 28 29 30 31 32 33 34 35 36 37 38 39 40 41 42 43 44 45 46 47 48 49 50
000
ASUS43 KIND 302109
RWRIN

WEATHER ROUNDUP FOR INDIANA
NATIONAL WEATHER SERVICE INDIANAPOLIS IN
500 PM EDT SUN APR 30 2017

NOTE: "FAIR" INDICATES FEW OR NO CLOUDS BELOW 12,000 FEET WITH NO
SIGNIFICANT WEATHER AND/OR OBSTRUCTIONS TO VISIBILITY.

* - STATION DOES NOT REPORT WEATHER SUCH AS PRECIPITATION OR FOG.

+ - STATION NOT QUALITY CONTROLLED BY THE NATIONAL WEATHER SERVICE.
    USE DATA WITH CAUTION...ESPECIALLY DEWPOINT AND RELATIVE
    HUMIDITY OBSERVATIONS.

INZ001>003-010>013-019-020-302200-
NORTHWEST INDIANA

CITY           SKY/WX    TMP DP  RH WIND       PRES   REMARKS
GARY /AIRPORT/ CLOUDY    46  46 100 N10       29.78F FOG
KNOX *+        CLOUDY    63  54  72 CALM      29.75F
LA PORTE +     CLOUDY    54  53  97 N3        29.76F FOG
MICHIGAN CITY+ FOG       46  46 100 N3        29.77F VSB 1/2
MONTICELLO +   DRIZZLE   65  64  95 S6        29.76S
RENSSELAER +   DRIZZLE   64  61  88 NE3       29.74F
VALPARAISO     LGT RAIN  52  51  97 N6        29.77F FOG

$$

LMZ046-743>745-302200-
SOUTHERN LAKE MICHIGAN

STATION/POSITION TIME  TEMP    WIND        PRES    WAVE
                       AIR SEA DIR/SP/G            HT
                 (UTC) (F)     (DEG/KT/KT) (MB)    (FT)
BURNS HARBOR     2040   45      30/  9/ 12 1009.1F
MICHIGAN CITY    2040   45      10/  6/  7   N/A
5NW MICH CITY    2100   44 49                N/A     3

$$

INZ004-005-014>016-021>024-302200-
NORTH CENTRAL INDIANA

CITY           SKY/WX    TMP DP  RH WIND       PRES   REMARKS
ELKHART        DRIZZLE   66  63  88 S9        29.76F
GOSHEN         CLOUDY    67  62  84 S8        29.77F
LOGANSPORT +   CLOUDY    66  63  88 S8        29.77F
PERU/GRISSOM   LGT RAIN  66  66 100 S9        29.77F
ROCHESTER +    CLOUDY    68  64  88 S8        29.78R
SOUTH BEND     LGT RAIN  65  62  90 SW8       29.75F
WARSAW +       CLOUDY    66  63  88 S3        29.79S

$$

INZ006>009-017-018-025>027-302200-
NORTHEAST INDIANA

CITY           SKY/WX    TMP DP  RH WIND       PRES   REMARKS
ANGOLA *+      PTSUNNY   63  59  88 SE3       29.80F
AUBURN +       CLOUDY    68  61  77 SW3       29.81F
FORT WAYNE     LGT RAIN  66  63  90 S12       29.81F
HUNTINGTON +   RAIN     N/A N/A N/A SW5       29.79F
KENDALLVILLE + CLOUDY    66  65  98 S6        29.81F

$$

INZ028-029-035-036-043>045-051>053-302200-
WEST CENTRAL INDIANA

CITY           SKY/WX    TMP DP  RH WIND       PRES   REMARKS
CRAWFORDSVL +  CLOUDY    64  64 100 SE13      29.75S
GREENCASTLE +  CLOUDY    64  63  94 SE6       29.75F
LAFAYETTE      CLOUDY    67  65  93 SE7       29.73F
TERRE HAUTE    CLOUDY    68  63  84 SE10      29.72F

$$

INZ030>032-037>040-046>048-054>057-064-065-302200-
CENTRAL INDIANA

CITY           SKY/WX    TMP DP  RH WIND       PRES   REMARKS
CP ATTERBURY + LGT RAIN  64  63  94 E3        29.80F
COLUMBUS       CLOUDY    66  63  88 N9        29.79F
FRANKFORT +    CLOUDY    68  65  90 S7        29.77F
GREENWOOD *+   CLOUDY    66  63  90 SW6       29.79F
INDIANAPOLIS   TSTM      65  63  93 S7        29.77F
-EAGLE CREEK   LGT RAIN  65  62  90 SE6       29.77F
MARION +       PTSUNNY   64  63  94 S14       29.81F FOG
MT COMFORT *+  CLOUDY    64  61  88 S7        29.80F
SHELBYVILLE    LGT RAIN  68  62  81 E5        29.79F
ZIONSVILLE +   RAIN      63  62  96 S9        29.79F

$$

INZ033-034-041-042-049-050-058-059-302200-
EAST CENTRAL INDIANA

CITY           SKY/WX    TMP DP  RH WIND       PRES   REMARKS
MUNCIE         TSTM      66  62  87 S6        29.81F
RICHMOND +     CLOUDY    75  64  69 S20G26    29.82F

$$

INZ060-061-067>069-081>083-085>088-302200-
SOUTHWEST INDIANA

CITY           SKY/WX    TMP DP  RH WIND       PRES   REMARKS
EVANSVILLE     RAIN     N/A N/A N/A MISG      29.69F
WASHINGTON +   DRIZZLE   68  67  94 SE3       29.72F

$$

INZ062-063-066-070>080-084-089>092-302200-
SOUTH CENTRAL AND SOUTHEAST INDIANA

CITY           SKY/WX    TMP DP  RH WIND       PRES   REMARKS
BLOOMINGTON    CLOUDY    68  64  87 SE6       29.76F
MADISON *+     PTSUNNY   81  61  50 S14       29.83F
SEYMOUR +      CLOUDY    81  63  54 S14G25    29.77F

$$




USA.gov is the U.S. government's official web portal to all federal, state and local government web resources and services.